When you browse on this site, cookies collect data to enhance your experience and personalize the content and advertising you see.
Visit our Privacy Policy to learn more. By continuing to use the site, you agree to this use of cookies and data.
  • In United Kingdom
  • List of Countries
  • For 7 days
  • Water Temperature
  • Weather Map
  • Weather Widgets
  • user-avatar
    Login

    Hourly Weather Pardesiyya

    Today, 21 October, Monday

    Time Temperature Precipitation Wind Pressure Humidity
    00:00 +23°C° 0 mm 1 mps 756 mmHg 80%
    01:00 +21°C° 0 mm 0 mps 756 mmHg 81%
    02:00 +20°C° 0 mm 0 mps 755 mmHg 82%
    03:00 +22°C° 0 mm 1 mps 756 mmHg 82%
    04:00 +22°C° 0 mm 1 mps 756 mmHg 82%
    05:00 +22°C° 0 mm 1 mps 756 mmHg 83%
    06:00 +23°C° 0 mm 1 mps 756 mmHg 78%
    07:00 +24°C° 0 mm 1 mps 756 mmHg 74%
    08:00 +26°C° 0 mm 1 mps 756 mmHg 69%
    09:00 +27°C° 0 mm 2 mps 756 mmHg 63%
    10:00 +28°C° 0 mm 2 mps 756 mmHg 58%
    11:00 +29°C° 0 mm 3 mps 756 mmHg 52%
    12:00 +29°C° 0 mm 3 mps 755 mmHg 51%
    13:00 +29°C° 0 mm 4 mps 755 mmHg 50%
    14:00 +29°C° 0 mm 4 mps 754 mmHg 50%
    15:00 +28°C° 0 mm 4 mps 754 mmHg 54%
    16:00 +27°C° 0 mm 4 mps 754 mmHg 58%
    17:00 +26°C° 0 mm 3 mps 754 mmHg 62%
    18:00 +25°C° 0 mm 3 mps 754 mmHg 66%
    19:00 +25°C° 0 mm 3 mps 754 mmHg 70%
    20:00 +24°C° 0 mm 2 mps 754 mmHg 73%
    21:00 +23°C° 0 mm 2 mps 754 mmHg 75%
    22:00 +23°C° 0 mm 2 mps 754 mmHg 76%
    23:00 +21°C° 0 mm 2 mps 754 mmHg 77%

    Tomorrow, 22 October, Tuesday

    Time Temperature Precipitation Wind Pressure Humidity
    00:00 +21°C° 0 mm 2 mps 753 mmHg 77%
    01:00 +22°C° 0 mm 1 mps 753 mmHg 77%
    02:00 +21°C° 0 mm 1 mps 753 mmHg 77%
    03:00 +21°C° 0 mm 1 mps 753 mmHg 77%
    04:00 +21°C° 0 mm 1 mps 753 mmHg 78%
    05:00 +21°C° 0 mm 1 mps 753 mmHg 78%
    06:00 +22°C° 0 mm 1 mps 753 mmHg 71%
    07:00 +24°C° 0 mm 1 mps 753 mmHg 65%
    08:00 +25°C° 0 mm 1 mps 753 mmHg 58%
    09:00 +26°C° 0 mm 2 mps 753 mmHg 52%
    10:00 +28°C° 0 mm 2 mps 753 mmHg 46%
    11:00 +29°C° 0 mm 3 mps 753 mmHg 41%
    12:00 +29°C° 0 mm 4 mps 753 mmHg 42%
    13:00 +30°C° 0 mm 5 mps 752 mmHg 43%
    14:00 +30°C° 0 mm 6 mps 752 mmHg 45%
    15:00 +29°C° 0 mm 6 mps 752 mmHg 51%
    16:00 +27°C° 0 mm 6 mps 752 mmHg 57%
    17:00 +26°C° 0 mm 6 mps 752 mmHg 63%
    18:00 +25°C° 0 mm 5 mps 752 mmHg 63%
    19:00 +25°C° 0 mm 4 mps 752 mmHg 64%
    20:00 +24°C° 0 mm 3 mps 752 mmHg 65%
    21:00 +24°C° 0 mm 3 mps 752 mmHg 64%
    22:00 +23°C° 0 mm 2 mps 752 mmHg 63%
    23:00 +23°C° 0 mm 2 mps 752 mmHg 61%

    Day after tomorrow, 23 October, Wednesday

    Time Temperature Precipitation Wind Pressure Humidity
    00:00 +23°C° 0.2 mm 2 mps 752 mmHg 60%
    01:00 +24°C° 0.2 mm 2 mps 752 mmHg 59%
    02:00 +24°C° 0.2 mm 3 mps 752 mmHg 57%
    03:00 +24°C° 0.2 mm 2 mps 752 mmHg 60%
    04:00 +23°C° 0.2 mm 2 mps 752 mmHg 63%
    05:00 +23°C° 0.2 mm 2 mps 752 mmHg 66%
    06:00 +22°C° 0.3 mm 3 mps 752 mmHg 68%
    07:00 +21°C° 0.3 mm 4 mps 753 mmHg 71%
    08:00 +21°C° 0.3 mm 5 mps 753 mmHg 73%
    09:00 +23°C° 0.1 mm 4 mps 753 mmHg 64%
    10:00 +25°C° 0.1 mm 3 mps 753 mmHg 54%
    11:00 +27°C° 0.1 mm 2 mps 753 mmHg 44%
    12:00 +27°C° 0 mm 2 mps 753 mmHg 44%
    13:00 +28°C° 0 mm 3 mps 752 mmHg 44%
    14:00 +28°C° 0 mm 3 mps 752 mmHg 44%
    15:00 +27°C° 0 mm 3 mps 752 mmHg 49%
    16:00 +26°C° 0 mm 3 mps 752 mmHg 55%
    17:00 +25°C° 0 mm 2 mps 752 mmHg 61%
    18:00 +25°C° 0.1 mm 2 mps 752 mmHg 63%
    19:00 +24°C° 0.1 mm 2 mps 752 mmHg 65%
    20:00 +24°C° 0.1 mm 1 mps 753 mmHg 67%
    21:00 +23°C° 0.1 mm 1 mps 753 mmHg 68%
    22:00 +23°C° 0.1 mm 1 mps 753 mmHg 69%
    23:00 +23°C° 0.1 mm 1 mps 753 mmHg 71%

    24 October, Thursday

    Time Temperature Precipitation Wind Pressure Humidity
    00:00 +22°C° 0.1 mm 1 mps 753 mmHg 71%
    01:00 +22°C° 0.1 mm 1 mps 753 mmHg 72%
    02:00 +22°C° 0.1 mm 1 mps 752 mmHg 73%
    03:00 +21°C° 0 mm 2 mps 753 mmHg 73%
    04:00 +21°C° 0 mm 2 mps 753 mmHg 73%
    05:00 +21°C° 0 mm 2 mps 753 mmHg 73%
    06:00 +23°C° 0 mm 2 mps 753 mmHg 69%
    07:00 +24°C° 0 mm 2 mps 754 mmHg 64%
    08:00 +25°C° 0 mm 2 mps 754 mmHg 59%
    09:00 +26°C° 0 mm 2 mps 754 mmHg 54%
    10:00 +27°C° 0 mm 2 mps 754 mmHg 49%
    11:00 +28°C° 0 mm 2 mps 754 mmHg 44%
    12:00 +28°C° 0 mm 3 mps 753 mmHg 43%
    13:00 +28°C° 0 mm 3 mps 753 mmHg 42%
    14:00 +28°C° 0 mm 4 mps 753 mmHg 41%
    15:00 +27°C° 0 mm 4 mps 753 mmHg 46%
    16:00 +26°C° 0 mm 4 mps 752 mmHg 51%
    17:00 +25°C° 0 mm 4 mps 752 mmHg 56%
    18:00 +25°C° 0 mm 3 mps 753 mmHg 58%
    19:00 +24°C° 0 mm 3 mps 753 mmHg 61%
    20:00 +24°C° 0 mm 2 mps 753 mmHg 64%
    21:00 +24°C° 0 mm 2 mps 753 mmHg 65%
    22:00 +23°C° 0 mm 1 mps 754 mmHg 65%
    23:00 +23°C° 0 mm 1 mps 754 mmHg 66%

    25 October, Friday

    Time Temperature Precipitation Wind Pressure Humidity
    00:00 +22°C° 0 mm 1 mps 753 mmHg 67%
    01:00 +22°C° 0 mm 1 mps 753 mmHg 68%
    02:00 +22°C° 0 mm 1 mps 753 mmHg 69%
    03:00 +22°C° 0.2 mm 1 mps 753 mmHg 70%
    04:00 +21°C° 0.2 mm 1 mps 753 mmHg 71%
    05:00 +21°C° 0.2 mm 1 mps 753 mmHg 72%
    06:00 +22°C° 0.5 mm 1 mps 754 mmHg 69%
    07:00 +23°C° 0.5 mm 1 mps 754 mmHg 65%
    08:00 +24°C° 0.5 mm 2 mps 754 mmHg 62%
    09:00 +25°C° 0.9 mm 2 mps 754 mmHg 59%
    10:00 +26°C° 0.9 mm 3 mps 754 mmHg 56%
    11:00 +27°C° 0.9 mm 4 mps 754 mmHg 53%
    12:00 +27°C° 1.1 mm 4 mps 754 mmHg 53%
    13:00 +27°C° 1.1 mm 4 mps 754 mmHg 53%
    14:00 +27°C° 1.1 mm 4 mps 754 mmHg 53%
    15:00 +26°C° 0.5 mm 4 mps 754 mmHg 56%
    16:00 +26°C° 0.5 mm 4 mps 754 mmHg 58%
    17:00 +25°C° 0.5 mm 3 mps 754 mmHg 61%
    18:00 +25°C° 0.3 mm 3 mps 754 mmHg 63%
    19:00 +25°C° 0.3 mm 3 mps 754 mmHg 64%
    20:00 +24°C° 0.3 mm 3 mps 754 mmHg 66%
    21:00 +24°C° 0.1 mm 2 mps 754 mmHg 67%
    22:00 +24°C° 0.1 mm 2 mps 754 mmHg 67%
    23:00 +24°C° 0.1 mm 2 mps 754 mmHg 68%

    26 October, Saturday

    Time Temperature Precipitation Wind Pressure Humidity
    00:00 +24°C° 0 mm 2 mps 754 mmHg 68%
    01:00 +23°C° 0 mm 2 mps 754 mmHg 68%
    02:00 +23°C° 0 mm 1 mps 754 mmHg 68%
    03:00 +23°C° 0 mm 2 mps 754 mmHg 68%
    04:00 +23°C° 0 mm 2 mps 754 mmHg 68%
    05:00 +23°C° 0 mm 2 mps 754 mmHg 68%
    06:00 +24°C° 0 mm 2 mps 755 mmHg 65%
    07:00 +24°C° 0 mm 3 mps 755 mmHg 63%
    08:00 +25°C° 0 mm 3 mps 755 mmHg 60%
    09:00 +26°C° 0 mm 4 mps 755 mmHg 58%
    10:00 +27°C° 0 mm 4 mps 755 mmHg 55%
    11:00 +27°C° 0 mm 4 mps 755 mmHg 53%
    12:00 +27°C° 0 mm 4 mps 755 mmHg 53%
    13:00 +27°C° 0 mm 5 mps 755 mmHg 54%
    14:00 +27°C° 0 mm 5 mps 755 mmHg 54%
    15:00 +27°C° 0 mm 4 mps 755 mmHg 58%
    16:00 +26°C° 0 mm 4 mps 755 mmHg 61%
    17:00 +25°C° 0 mm 3 mps 755 mmHg 65%
    18:00 +25°C° 0 mm 2 mps 755 mmHg 66%
    19:00 +25°C° 0 mm 1 mps 755 mmHg 67%
    20:00 +24°C° 0 mm 1 mps 755 mmHg 68%
    21:00 +24°C° 0 mm 1 mps 755 mmHg 69%
    22:00 +24°C° 0 mm 1 mps 755 mmHg 69%
    23:00 +24°C° 0 mm 1 mps 755 mmHg 70%

    27 October, Sunday

    Time Temperature Precipitation Wind Pressure Humidity
    00:00 +21°C° 0 mm 0 mps 755 mmHg 71%
    01:00 +21°C° 0 mm 0 mps 755 mmHg 72%
    02:00 +21°C° 0 mm 0 mps 755 mmHg 73%
    03:00 +21°C° 0 mm 0 mps 755 mmHg 73%
    04:00 +20°C° 0 mm 0 mps 755 mmHg 74%
    05:00 +20°C° 0 mm 0 mps 755 mmHg 74%
    06:00 +23°C° 0 mm 1 mps 755 mmHg 71%
    07:00 +24°C° 0 mm 1 mps 756 mmHg 67%
    08:00 +24°C° 0 mm 1 mps 756 mmHg 64%
    09:00 +25°C° 0 mm 1 mps 756 mmHg 60%
    10:00 +26°C° 0 mm 1 mps 756 mmHg 55%
    11:00 +27°C° 0 mm 1 mps 756 mmHg 51%
    12:00 +27°C° 0 mm 2 mps 755 mmHg 51%
    13:00 +27°C° 0 mm 3 mps 755 mmHg 51%
    14:00 +28°C° 0 mm 4 mps 755 mmHg 51%
    15:00 +27°C° 0 mm 4 mps 755 mmHg 55%
    16:00 +26°C° 0 mm 4 mps 755 mmHg 60%
    17:00 +25°C° 0 mm 4 mps 754 mmHg 64%
    18:00 +25°C° 0 mm 4 mps 755 mmHg 66%
    19:00 +24°C° 0 mm 3 mps 755 mmHg 68%
    20:00 +24°C° 0 mm 3 mps 755 mmHg 70%
    21:00 +24°C° 0 mm 2 mps 755 mmHg 70%
    22:00 +23°C° 0 mm 2 mps 755 mmHg 71%
    23:00 +23°C° 0 mm 2 mps 755 mmHg 71%
    Show more